Wind_Speed
18 18 18 19 19 19 19 20 21 21 22 22 23 23 23 23 24 24 25 26 27 27 27 28 28 29 29 30 31 31 33 33 34 35 35 35 36 36
20 20 20 20 21 22 22 23 23 23 24 24 25 26 25 26 27 27 28 29 29 30 30 30 31 32 32 33 34 35 36 36 37 38 38 39 39 40
21 22 22 22 21 21 22 24 25 25 26 26 27 27 27 28 29 29 29 30 31 31 32 32 33 34 35 36 38 38 39 40 41 42 42 43 44 44
22 23 23 23 23 24 24 25 26 27 27 27 27 28 28 29 31 31 31 32 33 33 34 35 36 37 39 40 41 42 43 44 45 45 46 47 47 48
22 23 24 24 25 26 26 27 27 28 28 28 28 29 30 31 32 34 34 35 36 36 36 38 39 40 42 44 45 46 47 48 48 49 49 50 51 52
24 25 25 26 27 27 28 28 28 28 29 30 30 31 32 33 34 35 35 36 37 37 39 41 42 43 45 46 47 48 50 51 52 52 53 54 54 55
25 26 27 28 29 30 30 30 30 30 31 31 32 33 33 34 34 35 36 37 39 40 41 43 44 45 47 48 49 50 52 53 54 55 57 57 58 59
26 27 28 29 30 29 29 30 30 31 31 31 32 33 34 36 37 37 38 40 42 43 44 46 47 48 50 51 52 54 55 56 56 57 58 59 60 60
27 28 28 28 28 29 29 30 30 31 31 32 34 35 37 37 39 40 41 43 44 45 46 48 50 51 53 54 55 56 57 58 59 60 61 61 62 63
28 28 28 27 27 29 30 30 31 32 33 34 35 36 38 39 40 42 44 45 46 47 49 50 51 52 54 55 57 58 59 59 60 61 61 62 62 62
27 28 28 28 29 29 31 31 32 33 34 35 36 37 39 40 42 43 45 46 47 48 49 50 51 52 53 55 55 56 57 58 59 59 60 60 60 60
28 28 29 30 30 30 31 32 34 35 35 36 38 39 40 41 43 44 45 46 47 47 49 49 50 51 52 53 54 55 56 56 56 56 56 56 56 55
28 28 29 30 31 32 33 34 35 36 37 38 39 40 41 42 43 43 44 45 45 46 47 48 49 51 51 51 51 52 52 52 51 51 51 51 51 50
28 29 30 31 32 33 34 35 36 37 37 38 39 40 41 41 42 42 42 43 44 44 46 47 48 49 49 49 48 47 47 47 47 46 45 45 45 44
28 29 30 31 32 34 34 35 36 37 37 38 39 39 40 40 40 40 41 42 43 44 45 46 47 47 46 46 45 44 44 43 42 42 42 41 40 39
30 31 31 32 33 34 35 35 35 36 37 38 39 39 39 38 38 39 40 41 42 43 44 44 43 42 42 42 42 41 41 40 39 39 39 38 36 35
30 30 32 32 33 33 33 33 34 35 36 37 37 36 37 38 38 39 39 40 40 41 40 40 40 40 40 40 39 38 38 37 36 36 35 34 33 33
30 30 30 31 31 31 31 32 34 35 35 35 35 35 35 36 37 37 37 38 37 37 38 38 38 38 38 37 37 36 34 33 33 32 32 31 30 30
29 29 30 30 30 30 31 32 33 33 33 32 32 33 34 34 35 35 35 35 35 35 36 35 35 35 34 33 33 33 32 31 30 29 29 29 28 28
29 30 30 30 30 31 31 31 31 31 31 31 31 32 32 33 33 33 33 33 33 33 34 33 33 32 32 31 31 30 30 30 29 28 28 27 28 28
30 30 29 29 29 29 29 29 29 29 30 30 30 31 31 31 31 31 32 32 32 32 31 31 30 31 31 30 30 29 29 29 29 28 28 27 27 27
28 28 28 27 27 28 28 29 29 29 29 29 30 30 30 30 30 30 30 30 30 30 29 29 29 29 29 29 29 29 28 28 28 28 29 28 28 27
27 27 27 27 28 28 28 28 28 28 28 29 29 29 29 29 30 29 29 29 28 28 28 28 28 28 28 29 29 29 29 28 28 28 29 29 29 29
Wind_Direction
258 259 261 264 266 268 272 275 277 279 281 282 283 283 284 285 286 286 287 288 287 286 286 286 287 286 286 286 286 286 286 285 284 284 283 283 283 282
260 262 264 266 269 270 274 276 276 278 280 282 284 286 287 287 287 286 287 286 286 286 286 286 286 286 286 285 286 286 286 286 285 284 284 282 281 281
262 263 265 266 269 271 274 276 277 278 280 282 284 285 286 287 287 286 285 286 287 287 287 287 287 287 287 287 287 287 286 286 285 284 284 283 282 281
262 264 265 265 269 271 274 276 279 280 280 282 284 284 286 287 287 287 287 289 289 288 288 287 287 288 288 288 288 288 287 286 286 285 284 283 282 281
263 264 266 268 271 274 276 279 280 281 282 283 284 285 287 287 288 289 291 291 291 290 290 289 289 290 289 289 289 288 288 288 287 285 284 283 282 281
264 265 268 271 272 276 278 279 280 281 282 284 285 286 287 288 289 290 292 292 292 291 291 291 291 291 291 290 289 288 288 288 287 286 285 284 282 282
268 268 270 272 274 277 278 279 279 280 282 284 286 287 288 289 290 292 293 293 292 293 293 292 292 292 292 291 290 289 288 288 287 286 286 285 283 282
272 272 274 276 278 279 279 280 282 283 285 287 289 289 290 291 291 292 293 293 294 294 294 294 294 293 293 292 291 290 290 289 288 287 286 285 284 283
276 276 277 279 279 279 279 281 284 286 287 289 290 290 291 292 293 294 295 295 295 295 295 295 294 294 294 293 292 292 291 290 289 288 287 286 285 285
278 278 279 280 282 282 283 284 285 287 288 290 291 291 292 293 294 295 296 296 296 296 295 295 295 295 295 295 294 293 292 291 290 290 289 288 287 286
278 279 279 279 282 284 286 286 287 288 290 292 294 294 295 296 296 296 296 296 296 296 296 296 296 297 297 297 296 295 294 293 293 292 291 290 289 287
279 280 282 282 285 288 289 287 288 291 294 295 296 296 296 296 297 297 297 297 298 298 298 299 299 299 299 299 298 298 298 297 296 295 294 293 291 289
282 283 285 287 289 290 290 290 291 293 294 294 295 296 297 298 297 298 298 299 300 301 301 301 302 302 302 301 302 302 301 300 299 298 297 296 295 294
286 287 289 291 292 292 291 292 294 295 295 296 296 297 298 298 299 300 301 302 302 303 304 304 304 304 304 304 305 305 304 304 303 303 302 302 300 299
288 290 290 290 292 293 294 295 296 296 296 297 298 298 299 300 301 302 303 304 305 305 306 306 307 308 308 308 307 307 307 307 306 306 306 305 304 303
288 293 294 293 295 297 298 297 297 297 299 300 299 300 301 302 303 304 304 305 306 307 308 310 311 311 312 311 311 310 309 309 308 308 308 308 307 306
291 293 295 296 298 298 298 298 299 299 300 300 301 302 302 303 304 305 306 307 308 310 311 312 313 314 314 315 315 314 312 312 311 311 310 310 310 310
291 293 295 295 297 299 300 301 301 301 301 301 301 302 304 306 306 307 309 310 312 313 315 315 316 317 317 318 318 318 317 317 316 315 315 315 314 314
293 295 295 295 297 300 301 302 302 303 303 304 306 307 308 309 309 310 312 313 314 315 317 318 319 320 321 322 322 322 322 322 321 320 321 320 320 319
294 295 295 296 298 300 301 302 303 304 306 307 308 309 310 311 312 313 314 315 316 317 319 321 323 324 326 327 328 327 326 327 326 326 325 325 325 324
293 296 297 297 299 301 303 304 305 305 306 307 308 310 311 312 314 315 315 316 318 320 322 323 325 327 329 330 331 331 330 330 330 330 330 329 329 329
294 297 297 298 300 302 303 303 304 305 306 308 309 311 312 313 314 316 317 318 319 321 323 325 326 328 329 331 332 332 332 331 331 331 331 331 331 330
295 296 296 297 298 300 302 303 304 305 307 309 310 311 313 314 315 316 318 320 321 323 325 326 328 330 331 332 333 334 334 333 331 330 330 330 330 330
Height
5883 5884 5885 5886 5886 5887 5887 5887 5887 5887 5886 5886 5885 5884 5884 5883 5882 5881 5881 5880 5878 5877 5876 5875 5873 5872 5871 5870 5868 5867 5865 5864 5862 5860 5859 5858 5856 5855
5879 5880 5881 5881 5882 5882 5882 5882 5882 5882 5881 5880 5880 5878 5878 5877 5876 5875 5874 5873 5871 5869 5868 5867 5865 5864 5863 5861 5860 5858 5856 5854 5852 5851 5849 5847 5846 5844
5875 5876 5876 5876 5877 5877 5877 5876 5876 5876 5875 5875 5874 5872 5871 5870 5869 5868 5867 5866 5864 5862 5860 5859 5857 5855 5854 5852 5850 5848 5846 5843 5841 5840 5838 5836 5834 5832
5870 5871 5871 5871 5872 5872 5871 5871 5870 5869 5869 5868 5867 5866 5864 5863 5861 5860 5859 5858 5856 5854 5852 5850 5848 5846 5844 5841 5839 5837 5834 5832 5829 5827 5825 5823 5820 5818
5865 5866 5866 5866 5866 5866 5866 5865 5864 5863 5862 5861 5860 5859 5858 5856 5854 5852 5850 5849 5847 5845 5843 5840 5838 5835 5833 5830 5827 5825 5822 5819 5816 5814 5811 5808 5806 5803
5860 5860 5860 5860 5860 5860 5859 5858 5857 5856 5855 5854 5853 5852 5851 5849 5846 5844 5842 5840 5837 5835 5833 5830 5827 5824 5821 5818 5815 5812 5808 5805 5801 5798 5795 5793 5790 5787
5854 5854 5854 5854 5854 5853 5852 5851 5850 5849 5848 5846 5845 5844 5842 5840 5838 5835 5833 5830 5827 5825 5822 5819 5816 5812 5809 5805 5801 5798 5794 5790 5786 5782 5779 5775 5772 5769
5847 5847 5847 5847 5846 5846 5845 5844 5843 5842 5840 5839 5837 5836 5833 5831 5829 5826 5823 5821 5818 5815 5811 5807 5803 5799 5795 5791 5786 5782 5778 5774 5769 5765 5761 5757 5753 5749
5841 5841 5840 5840 5839 5838 5838 5836 5835 5834 5833 5831 5829 5827 5825 5822 5819 5816 5813 5809 5806 5802 5798 5794 5790 5785 5780 5775 5770 5766 5761 5756 5751 5746 5742 5737 5733 5729
5834 5834 5833 5833 5832 5831 5830 5828 5827 5825 5824 5822 5820 5817 5814 5811 5808 5805 5802 5797 5793 5789 5785 5780 5775 5770 5764 5758 5753 5748 5743 5737 5732 5726 5721 5716 5712 5707
5827 5827 5826 5826 5825 5823 5822 5820 5819 5817 5814 5812 5810 5807 5804 5801 5797 5793 5789 5785 5780 5776 5771 5766 5761 5755 5749 5743 5737 5731 5725 5719 5713 5707 5701 5696 5691 5687
5820 5819 5819 5818 5817 5815 5814 5812 5810 5808 5806 5803 5800 5796 5793 5789 5785 5781 5777 5772 5767 5762 5757 5751 5746 5740 5735 5727 5721 5714 5708 5701 5695 5689 5683 5677 5672 5667
5813 5812 5811 5810 5809 5807 5805 5803 5801 5798 5796 5793 5790 5786 5782 5778 5773 5769 5764 5759 5754 5749 5743 5737 5732 5725 5719 5713 5706 5699 5692 5685 5679 5673 5667 5661 5655 5650
5806 5805 5803 5802 5800 5798 5796 5793 5791 5788 5785 5782 5779 5775 5771 5766 5761 5756 5752 5747 5741 5736 5730 5724 5718 5712 5705 5699 5692 5685 5678 5671 5665 5659 5653 5647 5641 5635
5798 5797 5795 5793 5791 5789 5786 5783 5780 5778 5774 5771 5767 5763 5759 5754 5749 5745 5740 5735 5730 5724 5718 5711 5705 5698 5692 5686 5679 5673 5666 5660 5653 5647 5641 5635 5630 5624
5789 5788 5786 5784 5782 5779 5776 5773 5770 5767 5764 5760 5756 5752 5747 5743 5739 5734 5729 5724 5719 5713 5706 5700 5693 5687 5681 5674 5668 5661 5655 5649 5643 5637 5631 5625 5620 5614
5781 5779 5777 5775 5773 5770 5767 5763 5760 5757 5753 5749 5745 5741 5737 5733 5728 5724 5719 5713 5708 5702 5696 5690 5683 5677 5671 5664 5658 5652 5646 5640 5634 5628 5622 5617 5611 5606
5773 5771 5769 5766 5764 5760 5757 5754 5751 5747 5743 5739 5735 5732 5727 5723 5718 5714 5708 5703 5698 5692 5687 5681 5675 5669 5662 5655 5650 5644 5638 5631 5626 5620 5614 5609 5604 5599
5764 5762 5760 5757 5754 5751 5748 5745 5741 5738 5734 5730 5727 5722 5718 5714 5709 5704 5699 5694 5689 5684 5678 5673 5667 5661 5655 5649 5642 5636 5630 5625 5619 5614 5608 5603 5598 5593
5756 5753 5751 5748 5746 5742 5739 5736 5733 5729 5726 5722 5718 5714 5710 5705 5700 5696 5691 5686 5681 5676 5671 5665 5660 5654 5648 5643 5637 5631 5624 5619 5613 5608 5603 5598 5592 5587
5747 5745 5742 5740 5737 5734 5731 5728 5724 5721 5718 5714 5710 5706 5701 5697 5692 5688 5683 5679 5674 5669 5664 5659 5653 5648 5642 5637 5631 5626 5620 5614 5608 5603 5598 5593 5588 5583
5738 5736 5734 5731 5729 5726 5723 5720 5716 5713 5709 5706 5702 5698 5694 5689 5685 5681 5676 5672 5667 5662 5658 5653 5647 5642 5637 5632 5626 5621 5616 5610 5604 5598 5593 5588 5582 5578
5731 5728 5726 5723 5721 5718 5715 5712 5709 5705 5702 5698 5694 5690 5686 5682 5678 5674 5670 5665 5661 5656 5652 5647 5642 5637 5632 5627 5621 5616 5611 5605 5600 5595 5590 5584 5578 5573